Location: Ferchesar
(52.6477°N, 12.4298°E)
Time: 12:41:21
(UTC+01:00)

AO-73 - Pass Details

Date: 31 October 2021
Orbit: 581 x 661 km, 97.6° (Epoch: 29 November)

Event Time Altitude Azimuth Distance (km) Brightness Sun altitude
Rises 05:28:18 0° 10° (N) 2,835 ? -15.1°
Reaches altitude 10° 05:30:29 10° 5° (N) 1,938 ? -14.8°
Maximum altitude 05:34:33 51° 290° (WNW) 765 ? -14.1°
Drops below altitude 10° 05:38:41 10° 215° (SW) 1,963 ? -13.5°
Sets 05:40:55 0° 210° (SSW) 2,877 ? -13.2°
